This is the latest recevied weather packets stored in our database for station/object SV2RCS-13. If no packets are shown the sender has not sent any weather packets the latest 10 day(s).
| Time | Temp. | Humidity | Pressure | Rain* | Wind** | Luminosity | Snow |
|---|---|---|---|---|---|---|---|
| 1788317740 | 25° C | 43% | 1015.4 hPa | - | - | - | - |
| 1788317140 | 25° C | 43% | 1015.4 hPa | - | - | - | - |
| 1788316540 | 25° C | 41% | 1015.4 hPa | - | - | - | - |
| 1788315940 | 25.56° C | 41% | 1015.2 hPa | - | - | - | - |
| 1788315339 | 25.56° C | 41% | 1015.1 hPa | - | - | - | - |
| 1788314740 | 25.56° C | 42% | 1015.1 hPa | - | - | - | - |
| 1788314140 | 25.56° C | 42% | 1015.1 hPa | - | - | - | - |
| 1788313540 | 25.56° C | 44% | 1014.9 hPa | - | - | - | - |
| 1788312941 | 25.56° C | 47% | 1015.1 hPa | - | - | - | - |
| 1788312341 | 25.56° C | 46% | 1014.9 hPa | - | - | - | - |
| 1788311740 | 25.56° C | 46% | 1014.8 hPa | - | - | - | - |
| 1788311140 | 25.56° C | 45% | 1014.8 hPa | - | - | - | - |
| 1788310539 | 25.56° C | 43% | 1014.8 hPa | - | - | - | - |
| 1788309939 | 25.56° C | 42% | 1014.8 hPa | - | - | - | - |
| 1788309340 | 25.56° C | 42% | 1014.9 hPa | - | - | - | - |
| 1788308740 | 25.56° C | 43% | 1015 hPa | - | - | - | - |
| 1788308140 | 25.56° C | 43% | 1015 hPa | - | - | - | - |
| 1788307540 | 25.56° C | 44% | 1015 hPa | - | - | - | - |
| 1788306940 | 25.56° C | 44% | 1014.9 hPa | - | - | - | - |
| 1788306340 | 25.56° C | 44% | 1014.9 hPa | - | - | - | - |
| 1788305740 | 25° C | 44% | 1014.8 hPa | - | - | - | - |
| 1788305140 | 25° C | 44% | 1014.8 hPa | - | - | - | - |
| 1788304540 | 25.56° C | 44% | 1014.7 hPa | - | - | - | - |
| 1788303940 | 25.56° C | 44% | 1014.6 hPa | - | - | - | - |
| 1788303340 | 25.56° C | 43% | 1014.7 hPa | - | - | - | - |
* Rain since midnight (hover to see other rain measurements)
** Current wind speed in m/s (hover to see current wind gust speed)